contact:dominique.lefevre@mio.osupytheas.fr, maurice.libes@osupytheas.fr, didier.mallarino@osupytheas.fr
Project:EMSO http://www.emso-fr.org/EMSO-France
Depth: 2436.0 m
Title:EMSO Ligure Ouest : Data MII capteur MICROCAT
DateTime_Computer,Latitude,Longitude,Temperature,Conductivity,Pressure,DateTime_Instrument
DateTime_Computer,Latitude,Longitude,degC,S m-1,dbar,DateTime_Instrument
2020-09-07T00:00:59Z,42.805,6.029,13.3028,4.60033,2470.087,2020-9-07T02:01:50Z
2020-09-07T00:04:02Z,42.805,6.029,13.2995,4.60041,2470.11,2020-9-07T02:04:53Z
2020-09-07T00:07:05Z,42.805,6.029,13.3012,4.60049,2470.124,2020-9-07T02:07:56Z
2020-09-07T00:10:09Z,42.805,6.029,13.3030,4.60019,2470.124,2020-9-07T02:11:00Z
2020-09-07T00:13:13Z,42.805,6.029,13.3048,4.60037,2470.147,2020-9-07T02:14:04Z
2020-09-07T00:16:16Z,42.805,6.029,13.3039,4.60019,2470.133,2020-9-07T02:17:07Z
2020-09-07T00:19:17Z,42.805,6.029,13.3059,4.60011,2470.147,2020-9-07T02:20:08Z
2020-09-07T00:22:19Z,42.805,6.029,13.3031,4.59996,2470.11,2020-9-07T02:23:10Z
2020-09-07T00:25:24Z,42.805,6.029,13.3062,4.60042,2470.124,2020-9-07T02:26:15Z
2020-09-07T00:28:27Z,42.805,6.029,13.3029,4.60031,2470.133,2020-9-07T02:29:18Z
2020-09-07T00:31:29Z,42.805,6.029,13.3019,4.60009,2470.1,2020-9-07T02:32:20Z
2020-09-07T00:34:32Z,42.805,6.029,13.3046,4.60015,2470.124,2020-9-07T02:35:23Z
2020-09-07T00:37:35Z,42.805,6.029,13.3006,4.60011,2470.147,2020-9-07T02:38:26Z
2020-09-07T00:40:38Z,42.805,6.029,13.3011,4.60005,2470.133,2020-9-07T02:41:29Z
2020-09-07T00:43:40Z,42.805,6.029,13.3039,4.60003,2470.11,2020-9-07T02:44:31Z
2020-09-07T00:46:43Z,42.805,6.029,13.3012,4.60033,2470.147,2020-9-07T02:47:34Z
2020-09-07T00:49:48Z,42.805,6.029,13.3013,4.60003,2470.11,2020-9-07T02:50:39Z
2020-09-07T00:52:53Z,42.805,6.029,13.3006,4.60006,2470.11,2020-9-07T02:53:44Z
2020-09-07T00:55:57Z,42.805,6.029,13.3042,4.60021,2470.1,2020-9-07T02:56:48Z
2020-09-07T00:59:01Z,42.805,6.029,13.3011,4.60016,2470.087,2020-9-07T02:59:52Z
2020-09-07T01:02:05Z,42.805,6.029,13.3054,4.60038,2470.1,2020-9-07T03:02:57Z
2020-09-07T01:05:10Z,42.805,6.029,13.3005,4.60029,2470.124,2020-9-07T03:06:01Z
2020-09-07T01:08:14Z,42.805,6.029,13.3014,4.60011,2470.1,2020-9-07T03:09:05Z
2020-09-07T01:11:19Z,42.805,6.029,13.3030,4.59999,2470.063,2020-9-07T03:12:10Z
2020-09-07T01:14:23Z,42.805,6.029,13.3036,4.60001,2470.063,2020-9-07T03:15:14Z
2020-09-07T01:17:27Z,42.805,6.029,13.3014,4.60000,2470.063,2020-9-07T03:18:18Z
2020-09-07T01:20:28Z,42.805,6.029,13.3019,4.60014,2470.077,2020-9-07T03:21:19Z
2020-09-07T01:23:33Z,42.805,6.029,13.3014,4.60010,2470.087,2020-9-07T03:24:24Z
2020-09-07T01:26:37Z,42.805,6.029,13.3020,4.60012,2470.087,2020-9-07T03:27:28Z
2020-09-07T01:29:40Z,42.805,6.029,13.3018,4.60009,2470.077,2020-9-07T03:30:31Z
2020-09-07T01:32:43Z,42.805,6.029,13.3022,4.60004,2470.087,2020-9-07T03:33:35Z
2020-09-07T01:35:46Z,42.805,6.029,13.3017,4.60005,2470.077,2020-9-07T03:36:37Z
2020-09-07T01:38:49Z,42.805,6.029,13.3034,4.60011,2470.077,2020-9-07T03:39:40Z
2020-09-07T01:41:53Z,42.805,6.029,13.3019,4.60022,2470.087,2020-9-07T03:42:44Z
2020-09-07T01:44:57Z,42.805,6.029,13.3021,4.60011,2470.063,2020-9-07T03:45:48Z
2020-09-07T01:48:00Z,42.805,6.029,13.3026,4.60024,2470.063,2020-9-07T03:48:51Z
2020-09-07T01:51:03Z,42.805,6.029,13.3019,4.60003,2470.1,2020-9-07T03:51:54Z
2020-09-07T01:54:05Z,42.805,6.029,13.3006,4.60015,2470.1,2020-9-07T03:54:56Z
2020-09-07T01:57:08Z,42.805,6.029,13.3033,4.60032,2470.04,2020-9-07T03:57:59Z
2020-09-07T02:00:11Z,42.805,6.029,13.3026,4.60019,2470.04,2020-9-07T04:01:02Z
2020-09-07T02:03:13Z,42.805,6.029,13.3016,4.60011,2470.04,2020-9-07T04:04:04Z
2020-09-07T02:06:17Z,42.805,6.029,13.3021,4.60006,2470.077,2020-9-07T04:07:08Z
2020-09-07T02:09:21Z,42.805,6.029,13.3039,4.60020,2470.1,2020-9-07T04:10:12Z
2020-09-07T02:12:24Z,42.805,6.029,13.3009,4.60014,2470.04,2020-9-07T04:13:15Z
2020-09-07T02:15:26Z,42.805,6.029,13.3054,4.60001,2470.077,2020-9-07T04:16:17Z
2020-09-07T02:18:30Z,42.805,6.029,13.3056,4.60021,2470.077,2020-9-07T04:19:21Z
2020-09-07T02:21:35Z,42.805,6.029,13.3054,4.60014,2470.053,2020-9-07T04:22:26Z
2020-09-07T02:24:38Z,42.805,6.029,13.3034,4.60014,2470.04,2020-9-07T04:25:29Z
2020-09-07T02:27:41Z,42.805,6.029,13.3029,4.60031,2470.053,2020-9-07T04:28:32Z
2020-09-07T02:30:42Z,42.805,6.029,13.3086,4.60024,2470.063,2020-9-07T04:31:33Z
2020-09-07T02:33:46Z,42.805,6.029,13.3019,4.60019,2470.04,2020-9-07T04:34:37Z
2020-09-07T02:36:49Z,42.805,6.029,13.3031,4.60013,2470.04,2020-9-07T04:37:40Z
2020-09-07T02:39:54Z,42.805,6.029,13.3015,4.60029,2470.04,2020-9-07T04:40:45Z
2020-09-07T02:42:57Z,42.805,6.029,13.3018,4.60025,2470.063,2020-9-07T04:43:48Z
2020-09-07T02:46:00Z,42.805,6.029,13.3041,4.60041,2470.077,2020-9-07T04:46:51Z
2020-09-07T02:49:02Z,42.805,6.029,13.3034,4.60020,2470.063,2020-9-07T04:49:53Z
2020-09-07T02:52:06Z,42.805,6.029,13.2988,4.60013,2470.063,2020-9-07T04:52:57Z
2020-09-07T02:55:10Z,42.805,6.029,13.3043,4.60015,2470.077,2020-9-07T04:56:01Z
2020-09-07T02:58:12Z,42.805,6.029,13.2994,4.60012,2470.053,2020-9-07T04:59:03Z
2020-09-07T03:01:16Z,42.805,6.029,13.2976,4.60009,2470.017,2020-9-07T05:02:07Z
2020-09-07T03:04:20Z,42.805,6.029,13.2977,4.60011,2470.017,2020-9-07T05:05:11Z
2020-09-07T03:07:22Z,42.805,6.029,13.3021,4.60003,2470.077,2020-9-07T05:08:13Z
2020-09-07T03:10:26Z,42.805,6.029,13.3014,4.60022,2470.007,2020-9-07T05:11:17Z
2020-09-07T03:13:28Z,42.805,6.029,13.3030,4.60024,2470.077,2020-9-07T05:14:19Z
2020-09-07T03:16:32Z,42.805,6.029,13.3027,4.60026,2470.053,2020-9-07T05:17:23Z
2020-09-07T03:19:36Z,42.805,6.029,13.3002,4.60000,2470.063,2020-9-07T05:20:27Z
2020-09-07T03:22:41Z,42.805,6.029,13.2972,4.60006,2470.017,2020-9-07T05:23:32Z
2020-09-07T03:25:45Z,42.805,6.029,13.2979,4.60009,2470.017,2020-9-07T05:26:36Z
2020-09-07T03:28:48Z,42.805,6.029,13.3015,4.60019,2470.04,2020-9-07T05:29:39Z
2020-09-07T03:31:51Z,42.805,6.029,13.3016,4.60014,2470.03,2020-9-07T05:32:42Z
2020-09-07T03:34:55Z,42.805,6.029,13.3007,4.60010,2470.017,2020-9-07T05:35:46Z
2020-09-07T03:37:58Z,42.805,6.029,13.3013,4.60027,2470.04,2020-9-07T05:38:49Z
2020-09-07T03:41:01Z,42.805,6.029,13.3003,4.60009,2470.063,2020-9-07T05:41:52Z
2020-09-07T03:44:05Z,42.805,6.029,13.3014,4.60019,2470.053,2020-9-07T05:44:56Z
2020-09-07T03:47:06Z,42.805,6.029,13.3011,4.60011,2469.993,2020-9-07T05:47:57Z
2020-09-07T03:50:11Z,42.805,6.029,13.3023,4.60016,2470.053,2020-9-07T05:51:02Z
2020-09-07T03:53:15Z,42.805,6.029,13.3008,4.60015,2470.03,2020-9-07T05:54:06Z
2020-09-07T03:56:19Z,42.805,6.029,13.2982,4.60026,2470.053,2020-9-07T05:57:10Z
2020-09-07T03:59:23Z,42.805,6.029,13.2976,4.59996,2470.04,2020-9-07T06:00:14Z
2020-09-07T04:02:28Z,42.805,6.029,13.2969,4.59984,2470.04,2020-9-07T06:03:19Z
2020-09-07T04:05:32Z,42.805,6.029,13.2974,4.59986,2470.007,2020-9-07T06:06:23Z
2020-09-07T04:08:35Z,42.805,6.029,13.2975,4.59994,2469.993,2020-9-07T06:09:26Z
2020-09-07T04:11:40Z,42.805,6.029,13.2973,4.59994,2469.993,2020-9-07T06:12:31Z
2020-09-07T04:14:44Z,42.805,6.029,13.2974,4.60002,2469.993,2020-9-07T06:15:35Z
2020-09-07T04:17:48Z,42.805,6.029,13.2983,4.60005,2470.007,2020-9-07T06:18:39Z
2020-09-07T04:20:52Z,42.805,6.029,13.2979,4.59999,2470.04,2020-9-07T06:21:43Z
2020-09-07T04:23:54Z,42.805,6.029,13.2969,4.59992,2470.053,2020-9-07T06:24:45Z
2020-09-07T04:26:56Z,42.805,6.029,13.2971,4.59986,2470.04,2020-9-07T06:27:47Z
2020-09-07T04:30:00Z,42.805,6.029,13.2973,4.59987,2470.053,2020-9-07T06:30:51Z
2020-09-07T04:33:03Z,42.805,6.029,13.2971,4.59987,2470.04,2020-9-07T06:33:54Z
2020-09-07T04:36:05Z,42.805,6.029,13.2969,4.59982,2470.04,2020-9-07T06:36:56Z
2020-09-07T04:39:06Z,42.805,6.029,13.2968,4.59980,2470.03,2020-9-07T06:39:57Z
2020-09-07T04:42:11Z,42.805,6.029,13.2971,4.59986,2470.017,2020-9-07T06:43:02Z
2020-09-07T04:45:14Z,42.805,6.029,13.2972,4.59986,2470.04,2020-9-07T06:46:05Z
2020-09-07T04:48:19Z,42.805,6.029,13.3007,4.60007,2469.993,2020-9-07T06:49:10Z
2020-09-07T04:51:23Z,42.805,6.029,13.2986,4.60001,2470.053,2020-9-07T06:52:14Z
2020-09-07T04:54:24Z,42.805,6.029,13.2977,4.60015,2470.03,2020-9-07T06:55:16Z
2020-09-07T04:57:28Z,42.805,6.029,13.2971,4.59998,2470.026,2020-9-07T06:58:19Z
2020-09-07T05:00:33Z,42.805,6.029,13.2972,4.59986,2470.007,2020-9-07T07:01:24Z
2020-09-07T05:03:36Z,42.805,6.029,13.2973,4.59989,2470.077,2020-9-07T07:04:27Z
2020-09-07T05:06:39Z,42.805,6.029,13.2971,4.59986,2470.077,2020-9-07T07:07:31Z
2020-09-07T05:09:41Z,42.805,6.029,13.2970,4.59986,2470.017,2020-9-07T07:10:32Z
2020-09-07T05:12:46Z,42.805,6.029,13.2972,4.59991,2470.017,2020-9-07T07:13:37Z
2020-09-07T05:15:49Z,42.805,6.029,13.2972,4.59986,2470.053,2020-9-07T07:16:40Z
2020-09-07T05:18:52Z,42.805,6.029,13.2970,4.59982,2470.017,2020-9-07T07:19:43Z
2020-09-07T05:21:54Z,42.805,6.029,13.2971,4.59988,2470.04,2020-9-07T07:22:45Z
2020-09-07T05:24:55Z,42.805,6.029,13.2972,4.59979,2470.04,2020-9-07T07:25:46Z
2020-09-07T05:27:59Z,42.805,6.029,13.2968,4.59981,2470.077,2020-9-07T07:28:50Z
2020-09-07T05:31:01Z,42.805,6.029,13.2971,4.59979,2470.077,2020-9-07T07:31:52Z
2020-09-07T05:34:05Z,42.805,6.029,13.2970,4.59978,2470.04,2020-9-07T07:34:56Z
2020-09-07T05:37:06Z,42.805,6.029,13.2974,4.59976,2470.017,2020-9-07T07:37:57Z
2020-09-07T05:40:09Z,42.805,6.029,13.2968,4.59975,2470.04,2020-9-07T07:41:00Z
2020-09-07T05:43:10Z,42.805,6.029,13.2970,4.59976,2470.04,2020-9-07T07:44:01Z
2020-09-07T05:46:12Z,42.805,6.029,13.2971,4.59976,2470.063,2020-9-07T07:47:03Z
2020-09-07T05:49:16Z,42.805,6.029,13.2968,4.59975,2470.04,2020-9-07T07:50:08Z
2020-09-07T05:52:19Z,42.805,6.029,13.2971,4.59976,2470.063,2020-9-07T07:53:10Z
2020-09-07T05:55:20Z,42.805,6.029,13.2969,4.59975,2470.063,2020-9-07T07:56:11Z
2020-09-07T05:58:23Z,42.805,6.029,13.2971,4.59976,2470.03,2020-9-07T07:59:15Z
2020-09-07T06:01:27Z,42.805,6.029,13.2971,4.59977,2470.04,2020-9-07T08:02:18Z
2020-09-07T06:04:31Z,42.805,6.029,13.2969,4.59976,2470.063,2020-9-07T08:05:22Z
2020-09-07T06:07:36Z,42.805,6.029,13.2971,4.59976,2470.04,2020-9-07T08:08:27Z
2020-09-07T06:10:38Z,42.805,6.029,13.2971,4.59976,2470.04,2020-9-07T08:11:29Z
2020-09-07T06:13:42Z,42.805,6.029,13.2971,4.59978,2470.1,2020-9-07T08:14:33Z
2020-09-07T06:16:46Z,42.805,6.029,13.2966,4.59976,2470.063,2020-9-07T08:17:37Z
2020-09-07T06:19:50Z,42.805,6.029,13.2971,4.59976,2470.087,2020-9-07T08:20:41Z
2020-09-07T06:22:53Z,42.805,6.029,13.2971,4.59978,2470.063,2020-9-07T08:23:44Z
2020-09-07T06:25:57Z,42.805,6.029,13.2971,4.59976,2470.053,2020-9-07T08:26:48Z
2020-09-07T06:29:02Z,42.805,6.029,13.2971,4.59976,2470.063,2020-9-07T08:29:53Z
2020-09-07T06:32:05Z,42.805,6.029,13.2971,4.59980,2470.087,2020-9-07T08:32:56Z
2020-09-07T06:35:06Z,42.805,6.029,13.2972,4.59983,2470.11,2020-9-07T08:35:57Z
2020-09-07T06:38:10Z,42.805,6.029,13.2972,4.59981,2470.087,2020-9-07T08:39:01Z
2020-09-07T06:41:12Z,42.805,6.029,13.2970,4.59977,2470.077,2020-9-07T08:42:03Z
2020-09-07T06:44:14Z,42.805,6.029,13.2971,4.59976,2470.087,2020-9-07T08:45:05Z
2020-09-07T06:47:16Z,42.805,6.029,13.2971,4.59973,2470.087,2020-9-07T08:48:07Z
2020-09-07T06:50:20Z,42.805,6.029,13.2969,4.59976,2470.1,2020-9-07T08:51:11Z
2020-09-07T06:53:23Z,42.805,6.029,13.2970,4.59975,2470.087,2020-9-07T08:54:14Z
2020-09-07T06:56:28Z,42.805,6.029,13.2968,4.59980,2470.1,2020-9-07T08:57:19Z
2020-09-07T06:59:29Z,42.805,6.029,13.2973,4.59976,2470.11,2020-9-07T09:00:20Z
2020-09-07T07:02:34Z,42.805,6.029,13.2971,4.59976,2470.063,2020-9-07T09:03:25Z
2020-09-07T07:05:38Z,42.805,6.029,13.2969,4.59976,2470.1,2020-9-07T09:06:29Z
2020-09-07T07:08:42Z,42.805,6.029,13.2967,4.59976,2470.077,2020-9-07T09:09:33Z
2020-09-07T07:11:44Z,42.805,6.029,13.2968,4.59976,2470.1,2020-9-07T09:12:35Z
2020-09-07T07:14:45Z,42.805,6.029,13.2976,4.59978,2470.124,2020-9-07T09:15:36Z
2020-09-07T07:17:49Z,42.805,6.029,13.2971,4.59975,2470.096,2020-9-07T09:18:40Z
2020-09-07T07:20:50Z,42.805,6.029,13.2973,4.59976,2470.087,2020-9-07T09:21:41Z
2020-09-07T07:23:53Z,42.805,6.029,13.2969,4.59978,2470.156,2020-9-07T09:24:44Z
2020-09-07T07:26:56Z,42.805,6.029,13.2967,4.59976,2470.087,2020-9-07T09:27:47Z
2020-09-07T07:30:00Z,42.805,6.029,13.2973,4.59976,2470.124,2020-9-07T09:30:51Z
2020-09-07T07:33:01Z,42.805,6.029,13.2971,4.59976,2470.11,2020-9-07T09:33:52Z
2020-09-07T07:36:05Z,42.805,6.029,13.2972,4.59978,2470.124,2020-9-07T09:36:56Z
2020-09-07T07:39:10Z,42.805,6.029,13.2971,4.59978,2470.133,2020-9-07T09:40:01Z
2020-09-07T07:42:14Z,42.805,6.029,13.2970,4.59976,2470.11,2020-9-07T09:43:05Z
2020-09-07T07:45:17Z,42.805,6.029,13.2971,4.59978,2470.133,2020-9-07T09:46:08Z
2020-09-07T07:48:19Z,42.805,6.029,13.2972,4.59974,2470.171,2020-9-07T09:49:10Z
2020-09-07T07:51:23Z,42.805,6.029,13.2971,4.59973,2470.124,2020-9-07T09:52:14Z
2020-09-07T07:54:28Z,42.805,6.029,13.2970,4.59973,2470.087,2020-9-07T09:55:19Z
2020-09-07T07:57:31Z,42.805,6.029,13.2968,4.59975,2470.147,2020-9-07T09:58:22Z
2020-09-07T08:00:34Z,42.805,6.029,13.2969,4.59976,2470.11,2020-9-07T10:01:25Z
2020-09-07T08:03:39Z,42.805,6.029,13.2968,4.59975,2470.11,2020-9-07T10:04:30Z
2020-09-07T08:06:42Z,42.805,6.029,13.2971,4.59973,2470.194,2020-9-07T10:07:33Z
2020-09-07T08:09:45Z,42.805,6.029,13.2971,4.59974,2470.133,2020-9-07T10:10:36Z
2020-09-07T08:12:46Z,42.805,6.029,13.2971,4.59973,2470.133,2020-9-07T10:13:37Z
2020-09-07T08:15:50Z,42.805,6.029,13.2971,4.59975,2470.133,2020-9-07T10:16:41Z
2020-09-07T08:18:54Z,42.805,6.029,13.2971,4.59973,2470.156,2020-9-07T10:19:45Z
2020-09-07T08:21:57Z,42.805,6.029,13.2972,4.59973,2470.156,2020-9-07T10:22:48Z
2020-09-07T08:25:00Z,42.805,6.029,13.2973,4.59973,2470.133,2020-9-07T10:25:52Z
2020-09-07T08:28:03Z,42.805,6.029,13.2967,4.59973,2470.133,2020-9-07T10:28:54Z
2020-09-07T08:31:07Z,42.805,6.029,13.2968,4.59972,2470.133,2020-9-07T10:31:58Z
2020-09-07T08:34:10Z,42.805,6.029,13.2975,4.59972,2470.133,2020-9-07T10:35:01Z
2020-09-07T08:37:13Z,42.805,6.029,13.2971,4.59972,2470.156,2020-9-07T10:38:04Z
2020-09-07T08:40:16Z,42.805,6.029,13.2972,4.59973,2470.156,2020-9-07T10:41:07Z
2020-09-07T08:43:17Z,42.805,6.029,13.2976,4.59973,2470.156,2020-9-07T10:44:09Z
2020-09-07T08:46:20Z,42.805,6.029,13.2971,4.59976,2470.166,2020-9-07T10:47:11Z
2020-09-07T08:49:22Z,42.805,6.029,13.2968,4.59974,2470.171,2020-9-07T10:50:13Z
2020-09-07T08:52:25Z,42.805,6.029,13.2969,4.59976,2470.156,2020-9-07T10:53:16Z
2020-09-07T08:55:28Z,42.805,6.029,13.2971,4.59974,2470.18,2020-9-07T10:56:19Z
2020-09-07T08:58:31Z,42.805,6.029,13.2969,4.59973,2470.156,2020-9-07T10:59:22Z
2020-09-07T09:01:35Z,42.805,6.029,13.2975,4.59973,2470.156,2020-9-07T11:02:26Z
2020-09-07T09:04:39Z,42.805,6.029,13.2972,4.59974,2470.156,2020-9-07T11:05:30Z
2020-09-07T09:07:42Z,42.805,6.029,13.2971,4.59973,2470.156,2020-9-07T11:08:33Z
2020-09-07T09:10:45Z,42.805,6.029,13.2971,4.59974,2470.171,2020-9-07T11:11:36Z
2020-09-07T09:13:48Z,42.805,6.029,13.2972,4.59976,2470.171,2020-9-07T11:14:39Z
2020-09-07T09:16:50Z,42.805,6.029,13.2971,4.59972,2470.194,2020-9-07T11:17:41Z
2020-09-07T09:19:55Z,42.805,6.029,13.2971,4.59973,2470.194,2020-9-07T11:20:46Z
2020-09-07T09:22:59Z,42.805,6.029,13.2972,4.59974,2470.18,2020-9-07T11:23:51Z
2020-09-07T09:26:01Z,42.805,6.029,13.2971,4.59973,2470.18,2020-9-07T11:26:52Z
2020-09-07T09:29:04Z,42.805,6.029,13.2968,4.59972,2470.156,2020-9-07T11:29:55Z
2020-09-07T09:32:09Z,42.805,6.029,13.2974,4.59974,2470.203,2020-9-07T11:33:00Z
2020-09-07T09:35:14Z,42.805,6.029,13.2971,4.59972,2470.156,2020-9-07T11:36:05Z
2020-09-07T09:38:17Z,42.805,6.029,13.2975,4.59973,2470.18,2020-9-07T11:39:08Z
2020-09-07T09:41:18Z,42.805,6.029,13.2971,4.59973,2470.18,2020-9-07T11:42:09Z
2020-09-07T09:44:22Z,42.805,6.029,13.2969,4.59973,2470.133,2020-9-07T11:45:13Z
2020-09-07T09:47:24Z,42.805,6.029,13.2976,4.59976,2470.203,2020-9-07T11:48:15Z
2020-09-07T09:50:27Z,42.805,6.029,13.2975,4.59974,2470.18,2020-9-07T11:51:18Z
2020-09-07T09:53:29Z,42.805,6.029,13.2971,4.59975,2470.171,2020-9-07T11:54:20Z
2020-09-07T09:56:31Z,42.805,6.029,13.2974,4.59978,2470.203,2020-9-07T11:57:22Z
2020-09-07T09:59:33Z,42.805,6.029,13.2971,4.59973,2470.156,2020-9-07T12:00:24Z
2020-09-07T10:02:35Z,42.805,6.029,13.2974,4.59972,2470.203,2020-9-07T12:03:26Z
2020-09-07T10:05:40Z,42.805,6.029,13.2972,4.59973,2470.18,2020-9-07T12:06:31Z
2020-09-07T10:08:44Z,42.805,6.029,13.2970,4.59976,2470.18,2020-9-07T12:09:35Z
2020-09-07T10:11:48Z,42.805,6.029,13.2968,4.59973,2470.203,2020-9-07T12:12:39Z
2020-09-07T10:14:49Z,42.805,6.029,13.2974,4.59972,2470.203,2020-9-07T12:15:40Z
2020-09-07T10:17:50Z,42.805,6.029,13.2972,4.59973,2470.18,2020-9-07T12:18:41Z
2020-09-07T10:20:54Z,42.805,6.029,13.2971,4.59974,2470.156,2020-9-07T12:21:45Z
2020-09-07T10:23:57Z,42.805,6.029,13.2972,4.59973,2470.217,2020-9-07T12:24:48Z
2020-09-07T10:27:00Z,42.805,6.029,13.2974,4.59980,2470.171,2020-9-07T12:27:52Z
2020-09-07T10:30:04Z,42.805,6.029,13.2974,4.59973,2470.217,2020-9-07T12:30:55Z
2020-09-07T10:33:09Z,42.805,6.029,13.2971,4.59973,2470.194,2020-9-07T12:34:00Z
2020-09-07T10:36:10Z,42.805,6.029,13.2974,4.59978,2470.18,2020-9-07T12:37:01Z
2020-09-07T10:39:15Z,42.805,6.029,13.2972,4.59974,2470.203,2020-9-07T12:40:06Z
2020-09-07T10:42:18Z,42.805,6.029,13.2974,4.59976,2470.147,2020-9-07T12:43:09Z
2020-09-07T10:45:22Z,42.805,6.029,13.2968,4.59974,2470.194,2020-9-07T12:46:13Z
2020-09-07T10:48:26Z,42.805,6.029,13.2974,4.59973,2470.18,2020-9-07T12:49:17Z
2020-09-07T10:51:29Z,42.805,6.029,13.2973,4.59980,2470.194,2020-9-07T12:52:20Z
2020-09-07T10:54:31Z,42.805,6.029,13.2975,4.59973,2470.203,2020-9-07T12:55:22Z
2020-09-07T10:57:35Z,42.805,6.029,13.2969,4.59973,2470.18,2020-9-07T12:58:26Z
2020-09-07T11:00:39Z,42.805,6.029,13.2973,4.59973,2470.194,2020-9-07T13:01:30Z
2020-09-07T11:03:43Z,42.805,6.029,13.2972,4.59972,2470.18,2020-9-07T13:04:34Z
2020-09-07T11:06:46Z,42.805,6.029,13.2971,4.59972,2470.156,2020-9-07T13:07:37Z
2020-09-07T11:09:50Z,42.805,6.029,13.2969,4.59973,2470.18,2020-9-07T13:10:41Z
2020-09-07T11:12:54Z,42.805,6.029,13.2974,4.59975,2470.156,2020-9-07T13:13:45Z
2020-09-07T11:15:55Z,42.805,6.029,13.2971,4.59975,2470.194,2020-9-07T13:16:46Z
2020-09-07T11:18:59Z,42.805,6.029,13.2975,4.59972,2470.171,2020-9-07T13:19:51Z
2020-09-07T11:22:01Z,42.805,6.029,13.2971,4.59973,2470.156,2020-9-07T13:22:52Z
2020-09-07T11:25:04Z,42.805,6.029,13.2972,4.59973,2470.11,2020-9-07T13:25:55Z
2020-09-07T11:28:09Z,42.805,6.029,13.2971,4.59975,2470.18,2020-9-07T13:29:00Z
2020-09-07T11:31:12Z,42.805,6.029,13.2970,4.59973,2470.156,2020-9-07T13:32:03Z
2020-09-07T11:34:14Z,42.805,6.029,13.2971,4.59974,2470.171,2020-9-07T13:35:05Z
2020-09-07T11:37:17Z,42.805,6.029,13.2973,4.59976,2470.171,2020-9-07T13:38:08Z
2020-09-07T11:40:20Z,42.805,6.029,13.2972,4.59985,2470.133,2020-9-07T13:41:10Z
2020-09-07T11:43:23Z,42.805,6.029,13.2971,4.59976,2470.171,2020-9-07T13:44:14Z
2020-09-07T11:46:27Z,42.805,6.029,13.2967,4.59985,2470.156,2020-9-07T13:47:18Z
2020-09-07T11:49:31Z,42.805,6.029,13.2969,4.59974,2470.156,2020-9-07T13:50:22Z
2020-09-07T11:52:32Z,42.805,6.029,13.2968,4.59978,2470.171,2020-9-07T13:53:23Z
2020-09-07T11:55:36Z,42.805,6.029,13.2974,4.59974,2470.156,2020-9-07T13:56:27Z
2020-09-07T11:58:40Z,42.805,6.029,13.2974,4.59975,2470.171,2020-9-07T13:59:31Z
2020-09-07T12:01:43Z,42.805,6.029,13.2970,4.59978,2470.194,2020-9-07T14:02:34Z
2020-09-07T12:04:46Z,42.805,6.029,13.2971,4.59979,2470.147,2020-9-07T14:05:37Z
2020-09-07T12:07:50Z,42.805,6.029,13.2971,4.59977,2470.11,2020-9-07T14:08:41Z
2020-09-07T12:10:53Z,42.805,6.029,13.2974,4.59976,2470.156,2020-9-07T14:11:44Z
2020-09-07T12:13:56Z,42.805,6.029,13.2970,4.59983,2470.133,2020-9-07T14:14:47Z
2020-09-07T12:17:00Z,42.805,6.029,13.2972,4.59978,2470.133,2020-9-07T14:17:51Z
2020-09-07T12:20:04Z,42.805,6.029,13.2973,4.59974,2470.11,2020-9-07T14:20:55Z
2020-09-07T12:23:09Z,42.805,6.029,13.2973,4.59974,2470.147,2020-9-07T14:24:00Z
2020-09-07T12:26:11Z,42.805,6.029,13.2972,4.59975,2470.11,2020-9-07T14:27:02Z
2020-09-07T12:29:14Z,42.805,6.029,13.2972,4.59975,2470.11,2020-9-07T14:30:05Z
2020-09-07T12:32:18Z,42.805,6.029,13.2971,4.59974,2470.124,2020-9-07T14:33:09Z
2020-09-07T12:35:21Z,42.805,6.029,13.2973,4.59974,2470.156,2020-9-07T14:36:12Z
2020-09-07T12:38:23Z,42.805,6.029,13.2974,4.59977,2470.11,2020-9-07T14:39:14Z
2020-09-07T12:41:26Z,42.805,6.029,13.2974,4.59977,2470.171,2020-9-07T14:42:16Z
2020-09-07T12:44:29Z,42.805,6.029,13.2973,4.59976,2470.11,2020-9-07T14:45:20Z
2020-09-07T12:47:32Z,42.805,6.029,13.2970,4.59978,2470.133,2020-9-07T14:48:23Z
2020-09-07T12:50:34Z,42.805,6.029,13.2971,4.59976,2470.156,2020-9-07T14:51:25Z
2020-09-07T12:53:38Z,42.805,6.029,13.2970,4.59975,2470.11,2020-9-07T14:54:29Z
2020-09-07T12:56:41Z,42.805,6.029,13.2967,4.59974,2470.156,2020-9-07T14:57:32Z
2020-09-07T12:59:45Z,42.805,6.029,13.2967,4.59979,2470.11,2020-9-07T15:00:36Z
2020-09-07T13:02:49Z,42.805,6.029,13.2974,4.59976,2470.1,2020-9-07T15:03:40Z
2020-09-07T13:05:51Z,42.805,6.029,13.2968,4.59981,2470.11,2020-9-07T15:06:42Z
2020-09-07T13:08:53Z,42.805,6.029,13.2973,4.59985,2470.147,2020-9-07T15:09:44Z
2020-09-07T13:11:55Z,42.805,6.029,13.2974,4.59981,2470.087,2020-9-07T15:12:46Z
2020-09-07T13:14:58Z,42.805,6.029,13.2970,4.59994,2470.11,2020-9-07T15:15:49Z
2020-09-07T13:18:02Z,42.805,6.029,13.2972,4.59986,2470.087,2020-9-07T15:18:53Z
2020-09-07T13:21:05Z,42.805,6.029,13.2968,4.59992,2470.11,2020-9-07T15:21:56Z
2020-09-07T13:24:09Z,42.805,6.029,13.2974,4.60002,2470.124,2020-9-07T15:25:00Z
2020-09-07T13:27:12Z,42.805,6.029,13.2971,4.59980,2470.087,2020-9-07T15:28:03Z
2020-09-07T13:30:16Z,42.805,6.029,13.2971,4.59988,2470.11,2020-9-07T15:31:07Z
2020-09-07T13:33:19Z,42.805,6.029,13.2979,4.60009,2470.087,2020-9-07T15:34:10Z
2020-09-07T13:36:22Z,42.805,6.029,13.2999,4.60022,2470.063,2020-9-07T15:37:13Z
2020-09-07T13:39:23Z,42.805,6.029,13.3031,4.60011,2470.077,2020-9-07T15:40:14Z
2020-09-07T13:42:26Z,42.805,6.029,13.3006,4.60019,2470.087,2020-9-07T15:43:17Z
2020-09-07T13:45:28Z,42.805,6.029,13.2996,4.59993,2470.077,2020-9-07T15:46:19Z
2020-09-07T13:48:33Z,42.805,6.029,13.2974,4.60004,2470.1,2020-9-07T15:49:24Z
2020-09-07T13:51:36Z,42.805,6.029,13.2970,4.59992,2470.1,2020-9-07T15:52:27Z
2020-09-07T13:54:37Z,42.805,6.029,13.2970,4.59994,2470.087,2020-9-07T15:55:29Z
2020-09-07T13:57:39Z,42.805,6.029,13.2969,4.59993,2470.11,2020-9-07T15:58:30Z
2020-09-07T14:00:43Z,42.805,6.029,13.2972,4.59996,2470.1,2020-9-07T16:01:34Z
2020-09-07T14:03:45Z,42.805,6.029,13.2976,4.59994,2470.11,2020-9-07T16:04:36Z
2020-09-07T14:06:50Z,42.805,6.029,13.2971,4.59991,2470.063,2020-9-07T16:07:41Z
2020-09-07T14:09:51Z,42.805,6.029,13.2973,4.60033,2470.063,2020-9-07T16:10:42Z
2020-09-07T14:12:52Z,42.805,6.029,13.2974,4.59999,2470.087,2020-9-07T16:13:43Z
2020-09-07T14:15:57Z,42.805,6.029,13.2971,4.60013,2470.077,2020-9-07T16:16:48Z
2020-09-07T14:19:00Z,42.805,6.029,13.2978,4.60002,2470.124,2020-9-07T16:19:51Z
2020-09-07T14:22:04Z,42.805,6.029,13.2975,4.59997,2470.1,2020-9-07T16:22:55Z
2020-09-07T14:25:08Z,42.805,6.029,13.2982,4.59994,2470.087,2020-9-07T16:25:59Z
2020-09-07T14:28:12Z,42.805,6.029,13.3000,4.60011,2470.1,2020-9-07T16:29:03Z
2020-09-07T14:31:16Z,42.805,6.029,13.2975,4.60042,2470.11,2020-9-07T16:32:07Z
2020-09-07T14:34:19Z,42.805,6.029,13.2971,4.59991,2470.087,2020-9-07T16:35:10Z
2020-09-07T14:37:21Z,42.805,6.029,13.2974,4.60049,2470.087,2020-9-07T16:38:12Z
2020-09-07T14:40:24Z,42.805,6.029,13.2980,4.60010,2470.087,2020-9-07T16:41:15Z
2020-09-07T14:43:26Z,42.805,6.029,13.2978,4.60001,2470.077,2020-9-07T16:44:17Z
2020-09-07T14:46:30Z,42.805,6.029,13.2986,4.60001,2470.1,2020-9-07T16:47:21Z
2020-09-07T14:49:33Z,42.805,6.029,13.3006,4.59993,2470.087,2020-9-07T16:50:24Z
2020-09-07T14:52:37Z,42.805,6.029,13.2992,4.59988,2470.063,2020-9-07T16:53:28Z
2020-09-07T14:55:40Z,42.805,6.029,13.3026,4.59995,2470.1,2020-9-07T16:56:31Z
2020-09-07T14:58:43Z,42.805,6.029,13.3046,4.59994,2470.04,2020-9-07T16:59:34Z
2020-09-07T15:01:47Z,42.805,6.029,13.3021,4.60002,2470.077,2020-9-07T17:02:38Z
2020-09-07T15:04:50Z,42.805,6.029,13.3018,4.60005,2470.063,2020-9-07T17:05:41Z
2020-09-07T15:07:53Z,42.805,6.029,13.3004,4.60019,2470.04,2020-9-07T17:08:45Z
2020-09-07T15:10:57Z,42.805,6.029,13.3011,4.60023,2470.077,2020-9-07T17:11:48Z
2020-09-07T15:13:58Z,42.805,6.029,13.3014,4.60016,2470.063,2020-9-07T17:14:49Z